GW3676 Weather Reports


time (UTC)temp
F
wind
direction
speed
knots
gust
knots
rain 1hr
in
rain 24hr
in
rain mn
in
humidity
%
barometer
mb
20260504014600 50 153 0.0 2.6 0.00 0.00 0.00 58 1012.3
20260504013053 50 172 0.0 1.7 0.00 0.00 0.00 58 1012.0
20260504011554 51 133 0.0 1.7 0.00 0.00 0.00 57 1012.1
20260504010056 52 0 0.0 1.7 0.00 0.00 0.00 55 1012.1
20260504004550 53 0 0.0 1.7 0.00 0.00 0.00 52 1012.1
20260504003059 54 167 0.9 2.6 0.00 0.00 0.00 50 1012.0
20260504001601 55 146 1.7 3.5 0.00 0.00 0.00 48 1012.1
20260504000048 55 129 1.7 5.2 0.00 0.00 0.00 47 1012.1
20260503234551 56 157 1.7 5.2 0.00 0.00 0.00 46 1012.2
20260503233046 56 184 1.7 5.2 0.00 0.00 0.00 46 1012.3
20260503231542 56 202 1.7 9.6 0.00 0.00 0.00 48 1012.3
20260503230047 57 159 2.6 7.8 0.00 0.00 0.00 45 1012.3
20260503224548 57 176 1.7 7.8 0.00 0.00 0.00 45 1012.4
20260503223052 57 142 2.6 7.0 0.00 0.00 0.00 45 1012.4
20260503221548 57 143 3.5 7.8 0.00 0.00 0.00 44 1012.7
20260503220051 57 188 2.6 8.7 0.00 0.00 0.00 44 1012.6
20260503214549 58 352 2.6 7.0 0.00 0.00 0.00 46 1012.6
20260503213055 58 128 2.6 8.7 0.00 0.00 0.00 44 1012.6
20260503211554 58 190 2.6 7.8 0.00 0.00 0.00 44 1012.5
20260503204553 59 152 2.6 8.7 0.00 0.00 0.00 44 1012.5
20260503203050 60 21 3.5 11.3 0.00 0.00 0.00 43 1012.6
20260503201552 60 81 2.6 7.8 0.00 0.00 0.00 39 1012.9
20260503200053 59 118 0.9 10.4 0.00 0.00 0.00 43 1013.1
20260503194548 59 81 2.6 7.0 0.00 0.00 0.00 42 1013.3
20260503193052 58 229 0.9 7.0 0.00 0.00 0.00 42 1013.6
20260503191549 58 107 1.7 11.3 0.00 0.00 0.00 43 1013.7
20260503190049 59 48 3.5 7.8 0.00 0.00 0.00 44 1014.1
20260503184603 59 282 2.6 8.7 0.00 0.00 0.00 46 1014.3
20260503183058 58 209 2.6 11.3 0.00 0.00 0.00 45 1014.3
20260503181554 58 210 3.5 9.6 0.00 0.00 0.00 44 1014.4
20260503180049 58 109 2.6 7.8 0.00 0.00 0.00 48 1014.6
20260503174550 58 49 1.7 8.7 0.00 0.00 0.00 46 1014.7
20260503173056 57 91 1.7 9.6 0.00 0.00 0.00 45 1014.9
20260503171549 58 74 1.7 7.0 0.00 0.00 0.00 46 1015.1
20260503081612 33 0 0.0 0.9 0.00 0.01 0.00 90 1015.5
20260503080108 33 0 0.0 0.9 0.00 0.01 0.00 90 1015.5
20260503071554 34 0 0.0 0.9 0.00 0.01 0.00 89 1015.6
20260503054555 37 0 0.0 0.0 0.00 0.02 0.00 83 1015.8
20260503053053 38 268 0.0 0.9 0.00 0.02 0.00 81 1015.8
20260503051557 38 0 0.0 0.9 0.00 0.02 0.00 81 1015.8
20260503050051 38 0 0.0 0.9 0.00 0.02 0.00 81 1015.9
20260503044554 38 0 0.0 0.9 0.00 0.02 0.00 81 1015.9
20260503043050 38 0 0.0 0.0 0.00 0.02 0.00 80 1016.0
20260503041551 38 0 0.0 0.0 0.00 0.02 0.00 81 1016.0
20260503040052 38 0 0.0 0.0 0.00 0.02 0.00 82 1016.1
20260503034554 38 0 0.0 0.0 0.00 0.02 0.02 83 1016.1
20260503033105 38 0 0.0 0.0 0.00 0.02 0.02 83 1016.2
20260503031556 38 0 0.0 0.0 0.00 0.02 0.02 82 1016.3
20260503030047 38 0 0.0 0.0 0.00 0.02 0.02 81 1016.4
20260503024610 38 0 0.0 0.0 0.00 0.02 0.02 79 1016.4
20260503023054 38 0 0.0 0.0 0.00 0.02 0.02 78 1016.6
20260503021600 38 0 0.0 0.0 0.00 0.02 0.02 78 1016.5
20260503020050 38 0 0.0 0.0 0.00 0.02 0.02 77 1016.5